Home   Weather   Kaiserslautern   Past weeks

Flag for Germany Past Weather in Kaiserslautern, Rhineland-Palatinate, Germany — Yesterday and Last 2 Weeks

Now
44 °F

Passing clouds.


Feels Like: 34 °F
Forecast: 31 / 47 °F
Wind: 23 mph from West

Location: Ramstein

Current Time: Feb 24, 2017 at 2:42:40 am

Latest Report: Feb 24, 2017 at 1:58 am


Visibility: N/A

Pressure: 29.67 "Hg

Humidity: 72%

Dew Point: 35 °F

Location of KaiserslauternLocation

Past Weather in Kaiserslautern — Graph

°F

Kaiserslautern Temperature Yesterday

Maximum temperature yesterday: 51 °F (at 3:58 pm)
Minimum temperature yesterday: 45 °F (at 8:20 pm)
Average temperature yesterday: 47 °F

High & Low Weather Summary for the Past Weeks

 TemperatureHumidityPressure
High59 °F (Feb 16, 2:58 pm)100% (Feb 9, 2:58 am)30.62 "Hg (Feb 9, 2:58 am)
Low19 °F (Feb 19, 7:42 am)58% (Feb 15, 2:58 pm)29.49 "Hg (Feb 23, 5:12 pm)
Average40 °F93%30.17 "Hg
* Reported Feb 9 1:58 am — Feb 24 1:58 am, Kaiserslautern, Weather by CustomWeather, © 2017

Note: Actual official high and low records may vary slightly from our data, if they occured in-between our weather recording intervals... More about our weather records

Advertising

Kaiserslautern Weather History for the Previous 24 Hours

Scroll right to see more
 ConditionsComfort  
Time TempWeatherWind HumidityBarometerVisibility
1:58 am
Fri, Feb 24
43 °FPassing clouds.23 mph76%29.67 "HgN/A
12:58 am45 °FPartly cloudy.22 mph71%29.63 "HgN/A
11:58 pm
Thu, Feb 23
45 °FOvercast.23 mph69%29.61 "HgN/A
10:58 pm45 °FPassing clouds.25 mph71%29.60 "HgN/A
9:58 pm45 °FPassing clouds.26 mph81%29.57 "HgN/A
9:28 pm45 °FLight rain. Fog.24 mph87%29.54 "Hg5 mi
9:20 pm45 °FLight rain. Passing clouds.21 mph93%29.54 "HgN/A
8:58 pm45 °FClear.17 mph81%29.55 "HgN/A
8:20 pm45 °FLight rain. Passing clouds.29 mph81%29.53 "HgN/A
7:58 pm48 °FThundershowers. Passing clouds.28 mph87%29.54 "HgN/A
7:25 pm46 °FPartly cloudy.23 mph93%29.50 "HgN/A
7:06 pm48 °FLight rain. Passing clouds.26 mph87%29.51 "HgN/A
6:58 pm48 °FLight rain. Mostly cloudy.31 mph87%29.52 "HgN/A
6:37 pm48 °FLight rain. Mostly cloudy.26 mph87%29.49 "HgN/A
6:11 pm48 °FLight rain. Mostly cloudy.26 mph82%29.49 "HgN/A
5:58 pm50 °FLight rain. Mostly cloudy.21 mph76%29.49 "HgN/A
5:44 pm48 °FBroken clouds.25 mph82%29.49 "HgN/A
5:29 pm48 °FMostly cloudy.25 mph87%29.50 "HgN/A
5:12 pm48 °FMostly cloudy.25 mph87%29.49 "HgN/A
4:58 pm48 °FMostly cloudy.21 mph85%29.50 "HgN/A
3:58 pm51 °FOvercast.23 mph72%29.50 "HgN/A
2:58 pm50 °FOvercast.24 mph76%29.55 "HgN/A
2:27 pm50 °FMostly cloudy.10 mph76%29.54 "HgN/A
1:58 pm50 °FPartly sunny.13 mph74%29.58 "HgN/A
12:58 pm49 °FMostly cloudy.12 mph79%29.62 "HgN/A
11:58 am47 °FOvercast.9 mph81%29.65 "HgN/A
10:58 am46 °FOvercast.14 mph82%29.69 "HgN/A
9:58 am46 °FOvercast.9 mph82%29.70 "HgN/A
9:24 am46 °FOvercast.7 mph82%29.71 "HgN/A
8:58 am46 °FOvercast.17 mph84%29.74 "HgN/A
7:58 am46 °FOvercast.10 mph82%29.75 "HgN/A
6:58 am46 °FOvercast.9 mph87%29.77 "HgN/A
5:58 am48 °FOvercast.7 mph82%29.80 "HgN/A
5:13 am46 °FOvercast.16 mph93%29.79 "HgN/A
4:59 am46 °FOvercast.14 mph93%29.79 "HgN/A
4:58 am46 °FOvercast.15 mph93%29.81 "HgN/A
3:58 am47 °FOvercast.9 mph92%29.83 "HgN/A
3:35 am46 °FOvercast.9 mph100%29.82 "HgN/A
3:15 am46 °FOvercast.9 mph100%29.82 "HgN/A
2:58 am47 °FOvercast.9 mph97%29.84 "HgN/A
2:34 am46 °FOvercast.12 mph100%29.82 "HgN/A
2:07 am46 °FOvercast.15 mph100%29.84 "HgN/A
Weather by CustomWeather, © 2017

See weather overviewHow to use our weather pages